KB7YYZ Weather Reports


Display with metric or nautical units.
time (UTC)temp
F
wind
direction
speed
MPH
gust
MPH
rain 1hr
in
rain 24hr
in
rain mn
in
humidity
%
barometer
mb
20260903155623 87 56 0.0 1.0 0.00 0.00 0.00 52 1010.6
20260903154530 87 66 1.0 1.0 0.00 0.00 0.00 53 1010.6
20260903153527 87 21 0.0 1.0 0.00 0.00 0.00 53 1010.5
20260903152547 86 59 1.0 1.0 0.00 0.00 0.00 54 1010.6
20260903151524 86 27 1.0 1.0 0.00 0.00 0.00 54 1010.6
20260903150522 85 39 1.0 1.0 0.00 0.00 0.00 55 1010.6
20260903145520 84 46 0.0 1.0 0.00 0.00 0.00 55 1010.7
20260903144531 83 33 0.0 0.0 0.00 0.00 0.00 55 1010.7
20260903143538 83 27 1.0 1.0 0.00 0.00 0.00 55 1010.8
20260903142522 83 328 1.0 1.0 0.00 0.00 0.00 55
20260903141537 83 345 1.0 1.0 0.00 0.00 0.00 55 1011.0
20260903140523 83 310 1.0 1.0 0.00 0.00 0.00 55 1010.8
20260903135529 83 339 1.0 1.0 0.00 0.00 0.00 55 1010.8
20260903134536 83 322 0.0 1.0 0.00 0.00 0.00 55 1010.7
20260903133541 83 312 0.0 0.0 0.00 0.00 0.00 55 1010.6
20260903132533 83 306 0.0 0.0 0.00 0.00 0.00 55 1010.6
20260903131520 83 0.0 0.0 0.00 0.00 0.00 55 1010.3
20260903130526 83 0.0 0.0 0.00 0.00 0.00 55 1010.2
20260903125552 83 0.0 0.0 0.00 0.00 0.00 55 1010.1
20260903124538 83 195 0.0 0.0 0.00 0.00 0.00 55 1010.0
20260903123551 83 245 1.0 2.0 0.00 0.00 0.00 55 1009.9
20260903122532 83 211 1.0 1.0 0.00 0.00 0.00 55 1009.6
20260903121544 84 222 0.0 1.0 0.00 0.00 0.00 55 1009.6
20260903120529 83 183 0.0 0.0 0.00 0.00 0.00 55 1009.5
20260903115527 84 158 0.0 0.0 0.00 0.00 0.00 55 1009.3
20260903114526 84 149 0.0 1.0 0.00 0.00 0.00 55 1009.2
20260903113523 84 201 0.0 1.0 0.00 0.00 0.00 55 1009.2
20260903112521 84 103 0.0 1.0 0.00 0.00 0.00 55 1009.2
20260903111519 83 172 1.0 1.0 0.00 0.00 0.00 55 1009.2
20260903110532 84 132 1.0 1.0 0.00 0.00 0.00 55 1009.2
20260903105523 84 147 1.0 1.0 0.00 0.00 0.00 55 1009.2
20260903104539 84 153 1.0 1.0 0.00 0.00 0.00 55 1009.3
20260903103551 84 209 1.0 1.0 0.00 0.00 0.00 54 1009.4
20260903102524 84 189 0.0 1.0 0.00 0.00 0.00 54 1009.4
20260903101529 84 174 1.0 1.0 0.00 0.00 0.00 54 1009.5
20260903100520 85 148 1.0 1.0 0.00 0.00 0.00 54 1009.5
20260903095615 85 141 0.0 1.0 0.00 0.00 0.00 53 1009.4
20260903094520 85 0.0 0.0 0.00 0.00 0.00 53 1009.4
20260903093521 86 0.0 0.0 0.00 0.00 0.00 53 1009.4
20260903092526 86 0.0 0.0 0.00 0.00 0.00 53 1009.5
20260903091533 86 0.0 0.0 0.00 0.00 0.00 53 1009.5
20260903090532 86 0.0 0.0 0.00 0.00 0.00 53 1009.6
20260903085534 86 0.0 0.0 0.00 0.00 0.00 53 1009.7
20260903084523 86 0.0 0.0 0.00 0.00 0.00 52 1009.7
20260903083525 86 0.0 0.0 0.00 0.00 0.00 52 1009.7
20260903082529 86 157 0.0 0.0 0.00 0.00 0.00 52 1009.7
20260903081528 86 190 0.0 1.0 0.00 0.00 0.00 52 1009.8
20260903080524 87 210 0.0 1.0 0.00 0.00 0.00 51 1009.8
20260903075522 87 228 0.0 0.0 0.00 0.00 0.00 52 1009.8
20260903074521 87 225 0.0 0.0 0.00 0.00 0.00 52 1009.9
20260903073527 87 0.0 0.0 0.00 0.00 0.00 52 1009.8
20260903072525 87 0.0 0.0 0.00 0.00 0.00 52 1009.7
20260903071540 87 0.0 0.0 0.00 0.00 0.00 52 1009.7
20260903070545 87 0.0 0.0 0.00 0.00 0.00 52 1009.6
20260903065552 87 0.0 0.0 0.00 0.00 0.00 51 1009.5
20260903064524 88 0.0 0.0 0.00 0.00 0.00 51 1009.5
20260903063542 88 0.0 0.0 0.00 0.00 0.00 50 1009.6
20260903062557 88 0.0 0.0 0.00 0.00 0.00 50 1009.6
20260903061542 88 0.0 0.0 0.00 0.00 0.00 49 1009.7
20260903060529 88 0.0 0.0 0.00 0.00 0.00 48 1009.7
20260903055521 88 0.0 0.0 0.00 0.00 0.00 48 1009.7
20260903054527 88 0.0 0.0 0.00 0.00 0.00 48 1009.7
20260903053534 88 209 0.0 0.0 0.00 0.00 0.00 48 1009.7
20260903052535 88 336 0.0 0.0 0.00 0.00 0.00 48 1009.7
20260903051544 88 82 0.0 0.0 0.00 0.00 0.00 48 1009.7
20260903050551 88 90 0.0 0.0 0.00 0.00 0.00 47 1009.7
20260903045544 88 214 0.0 1.0 0.00 0.00 0.00 47 1009.6
20260903044551 88 176 1.0 1.0 0.00 0.00 0.00 47 1009.6
20260903043526 89 216 2.0 2.0 0.00 0.00 0.00 46 1009.6
20260903042544 89 206 1.0 1.0 0.00 0.00 0.00 46 1009.4
20260903041521 89 184 1.0 1.0 0.00 0.00 0.00 46 1009.2
20260903040621 89 203 1.0 1.0 0.00 0.00 0.00 46 1009.1
20260903035548 89 80 1.0 1.0 0.00 0.00 0.00 46 1009.0
20260903034527 90 88 0.0 1.0 0.00 0.00 0.00 46 1009.0
20260903033621 90 101 0.0 0.0 0.00 0.00 0.00 45 1008.8
20260903032533 90 233 0.0 0.0 0.00 0.00 0.00 44 1008.8
20260903031552 90 227 0.0 0.0 0.00 0.00 0.00 43 1008.7
20260903030550 91 0.0 0.0 0.00 0.00 0.00 42 1008.5
20260903025551 91 0.0 0.0 0.00 0.00 0.00 42 1008.4
20260903024536 91 0.0 0.0 0.00 0.00 0.00 42 1008.3
20260903023531 92 212 0.0 0.0 0.00 0.00 0.00 42 1008.2
20260903022542 92 248 0.0 1.0 0.00 0.00 0.00 42 1008.2
20260903021542 92 210 0.0 0.0 0.00 0.00 0.00 41 1008.2
20260903020527 92 177 0.0 1.0 0.00 0.00 0.00 41 1008.2
20260903015539 93 207 0.0 1.0 0.00 0.00 0.00 41
20260903014526 93 287 0.0 0.0 0.00 0.00 0.00 41 1008.3
20260903013532 93 175 0.0 1.0 0.00 0.00 0.00 41 1008.1
20260903012530 94 88 0.0 1.0 0.00 0.00 0.00 41 1008.1
20260903011524 94 0.0 0.0 0.00 0.00 0.00 41 1008.0
20260903010526 94 0.0 0.0 0.00 0.00 0.00 40 1007.9
20260903005524 95 253 0.0 0.0 0.00 0.00 0.00 40 1008.0
20260903004523 95 183 1.0 1.0 0.00 0.00 0.00 40 1008.0
20260903003521 95 214 1.0 1.0 0.00 0.00 0.00 40 1008.1
20260903002522 95 0.0 0.0 0.00 0.00 0.00 40 1008.1
20260903001527 95 0.0 0.0 0.00 0.00 0.00 41 1008.1
20260903000540 95 248 0.0 0.0 0.00 0.00 0.00 41 1008.1
20260902235535 95 0.0 0.0 0.00 0.00 0.00 41 1008.1
20260902234546 95 0.0 0.0 0.00 0.00 0.00 41 1008.1
20260902233521 95 315 0.0 1.0 0.00 0.00 0.00 41 1008.1
20260902232525 95 9 0.0 0.0 0.00 0.00 0.00 40 1008.1
20260902231531 96 335 0.0 0.0 0.00 0.00 0.00 40 1008.1
20260902230532 96 14 0.0 1.0 0.00 0.00 0.00 39 1008.3
20260902225604 96 322 0.0 0.0 0.00 0.00 0.00 39 1008.6
20260902224524 96 290 0.0 1.0 0.00 0.00 0.00 39 1008.6
20260902223522 97 273 1.0 1.0 0.00 0.00 0.00 38 1008.7
20260902222548 97 277 0.0 1.0 0.00 0.00 0.00 40 1008.7
20260902221534 97 296 1.0 1.0 0.00 0.00 0.00 40 1008.8
20260902220634 97 308 1.0 2.0 0.00 0.00 0.00 39 1008.9
20260902215520 98 334 2.0 2.0 0.00 0.00 0.00 39 1009.1
20260902214529 98 353 1.0 1.0 0.00 0.00 0.00 38 1009.1
20260902213527 98 290 1.0 1.0 0.00 0.00 0.00 38 1009.0
20260902212526 99 319 1.0 1.0 0.00 0.00 0.00 38 1009.1
20260902211524 99 283 1.0 2.0 0.00 0.00 0.00 38 1009.4
20260902210521 99 341 1.0 1.0 0.00 0.00 0.00 36 1009.6
20260902205519 99 273 1.0 1.0 0.00 0.00 0.00 37 1009.6
20260902204530 98 245 1.0 1.0 0.00 0.00 0.00 38 1009.7
20260902203524 99 279 2.0 3.0 0.00 0.00 0.00 38 1009.8
20260902202534 99 275 2.0 2.0 0.00 0.00 0.00 39 1009.8
20260902201540 98 254 1.0 1.0 0.00 0.00 0.00 38 1009.9
20260902200529 99 263 2.0 2.0 0.00 0.00 0.00 39 1010.1
20260902195551 99 304 2.0 2.0 0.00 0.00 0.00 40 1010.3
20260902194525 99 347 2.0 2.0 0.00 0.00 0.00 40 1010.6
20260902193531 99 269 1.0 2.0 0.00 0.00 0.00 40 1010.9
20260902192540 98 308 2.0 2.0 0.00 0.00 0.00 41 1011.0
20260902191525 98 274 1.0 2.0 0.00 0.00 0.00 41 1011.1
20260902190548 98 256 1.0 2.0 0.00 0.00 0.00 41 1011.3
20260902185546 98 301 2.0 2.0 0.00 0.00 0.00 42 1011.4
20260902184531 98 269 1.0 1.0 0.00 0.00 0.00 42 1011.5
20260902183606 98 270 1.0 1.0 0.00 0.00 0.00 42 1011.6
20260902182522 98 281 1.0 1.0 0.00 0.00 0.00 42 1011.8
20260902181551 97 218 1.0 1.0 0.00 0.00 0.00 42 1011.8
20260902180539 97 272 1.0 1.0 0.00 0.00 0.00 43 1011.9
20260902175527 97 248 1.0 1.0 0.00 0.00 0.00 43 1011.9
20260902174544 96 250 1.0 1.0 0.00 0.00 0.00 44 1012.0
20260902173528 96 344 1.0 1.0 0.00 0.00 0.00 44 1012.1
20260902172521 95 298 1.0 1.0 0.00 0.00 0.00 45 1012.2
20260902171550 95 318 1.0 1.0 0.00 0.00 0.00 45 1012.2
20260902170525 94 349 1.0 1.0 0.00 0.00 0.00 47 1012.2
20260902165536 94 334 1.0 1.0 0.00 0.00 0.00 47 1012.1
20260902164534 93 266 1.0 1.0 0.00 0.00 0.00 47 1012.1
20260902163550 92 215 1.0 1.0 0.00 0.00 0.00 48 1012.1
20260902162546 91 233 0.0 0.0 0.00 0.00 0.00 49 1012.2
20260902161521 91 196 0.0 0.0 0.00 0.00 0.00 49 1012.2
20260902160546 90 187 0.0 1.0 0.00 0.00 0.00 50 1012.1